SWR02 LFMN-ESPA

Flight info

Callsign SWR02
Flight time N/A
Altitude 340
Route BASIP DCT ODINA/N0470F370 DCT RAUTA DCT LBU DCT MAXAN DCT SALLO/N0467F390 DCT RASEN/N0430F270 M852 TIMOB
Aircraft B77W/H-SDE1E2E3FGHIJ2J3J4J5M1RWXYZ/S

Departure

Time N/A
Airport Nice-Côte d'Azur Airport (LFMN)

Arrival

Time 2026-04-30 18:11
Airport Luleå Airport (ESPA)
Time Latitude Longitude Altitude Speed Heading
2026-04-30 14:53 44.19219 7.95821 26620 ft 451 kts 11°
2026-04-30 14:53 44.22273 7.96917 27144 ft 455 kts 11°
2026-04-30 14:54 44.28451 7.99118 28166 ft 462 kts 11°
2026-04-30 14:54 44.34724 8.01354 29143 ft 468 kts 11°
2026-04-30 14:55 44.41067 8.03630 30034 ft 473 kts 11°
2026-04-30 14:55 44.44263 8.04779 30486 ft 475 kts 11°
2026-04-30 14:55 44.50634 8.07077 31643 ft 471 kts 10°
2026-04-30 14:56 44.56961 8.09364 32665 ft 468 kts 10°
2026-04-30 14:56 44.63255 8.11644 33616 ft 466 kts 10°
2026-04-30 14:57 44.66394 8.12784 34053 ft 465 kts 10°
2026-04-30 14:57 44.72678 8.15068 34293 ft 466 kts 11°
2026-04-30 14:58 44.78978 8.17364 34640 ft 468 kts 11°
2026-04-30 14:58 44.82117 8.18510 35136 ft 465 kts 11°
2026-04-30 14:58 44.88331 8.20782 35284 ft 463 kts 11°
2026-04-30 15:00 45.03877 8.26489 35292 ft 461 kts 12°
2026-04-30 15:00 45.10123 8.28791 35853 ft 463 kts 12°
2026-04-30 15:01 45.16340 8.31087 36317 ft 461 kts 12°
2026-04-30 15:01 45.25641 8.34532 36281 ft 460 kts 12°
2026-04-30 15:02 45.31825 8.36829 36281 ft 459 kts 12°
2026-04-30 15:03 45.47288 8.42595 36286 ft 459 kts 13°
2026-04-30 15:04 45.62731 8.48387 36289 ft 459 kts 13°
2026-04-30 15:06 45.78159 8.54207 36289 ft 459 kts 13°
2026-04-30 15:07 45.90462 8.58854 36285 ft 459 kts 13°
2026-04-30 15:08 46.02790 8.63562 36299 ft 458 kts 13°
2026-04-30 15:09 46.17178 8.68484 36307 ft 455 kts
2026-04-30 15:10 46.29657 8.71479 36306 ft 455 kts
2026-04-30 15:11 46.48334 8.76270 36291 ft 453 kts
2026-04-30 15:13 46.63853 8.80289 36274 ft 452 kts 10°
2026-04-30 15:14 46.85524 8.85965 36231 ft 451 kts 10°
2026-04-30 15:17 47.13280 8.93304 36237 ft 450 kts 11°
2026-04-30 15:19 47.37853 8.99867 36236 ft 447 kts 11°
2026-04-30 17:39 63.47226 18.81166 37230 ft 440 kts 16°
2026-04-30 17:42 63.75873 19.05212 37211 ft 438 kts 16°
2026-04-30 17:42 63.84206 19.13750 37203 ft 442 kts 27°
2026-04-30 17:43 63.89346 19.21484 37027 ft 446 kts 27°
2026-04-30 17:44 63.97171 19.32818 35390 ft 440 kts 27°
2026-04-30 17:44 64.04806 19.43979 33961 ft 429 kts 26°
2026-04-30 17:46 64.17141 19.61929 31721 ft 412 kts 26°
2026-04-30 17:47 64.26589 19.76016 29966 ft 401 kts 25°
2026-04-30 17:48 64.35815 19.89841 28098 ft 390 kts 25°
2026-04-30 17:48 64.42552 20.00045 26743 ft 382 kts 25°
2026-04-30 17:49 64.51297 20.13404 24980 ft 371 kts 25°
2026-04-30 17:50 64.59792 20.26472 23219 ft 361 kts 25°
2026-04-30 17:51 64.66062 20.35937 21891 ft 355 kts 25°
2026-04-30 17:52 64.72210 20.45378 20563 ft 350 kts 26°
2026-04-30 17:53 64.82244 20.60908 18375 ft 341 kts 25°
2026-04-30 17:54 64.90089 20.73171 16628 ft 336 kts 27°
2026-04-30 17:55 64.97757 20.85385 14945 ft 329 kts 27°
2026-04-30 17:56 65.05193 20.97559 13339 ft 323 kts 35°
2026-04-30 17:57 65.09178 21.10666 12135 ft 330 kts 54°
2026-04-30 17:58 65.12202 21.25231 10915 ft 328 kts 59°
2026-04-30 17:59 65.15987 21.44030 10201 ft 292 kts 58°
2026-04-30 18:00 65.19379 21.60917 9177 ft 281 kts 59°
2026-04-30 18:00 65.21978 21.73318 8271 ft 278 kts 59°
2026-04-30 18:01 65.23636 21.81608 7670 ft 276 kts 60°
2026-04-30 18:02 65.26067 21.94003 6782 ft 274 kts 61°
2026-04-30 18:02 65.28404 22.06010 6132 ft 244 kts 61°
2026-04-30 18:03 65.30507 22.16857 4969 ft 235 kts 62°
2026-04-30 18:04 65.32445 22.26835 4507 ft 213 kts 61°
2026-04-30 18:05 65.35802 22.38055 3384 ft 205 kts 43°
2026-04-30 18:06 65.39951 22.44702 2401 ft 178 kts 339°
2026-04-30 18:07 65.43338 22.36712 2101 ft 170 kts 316°
2026-04-30 18:08 65.45608 22.31635 2067 ft 140 kts 316°
2026-04-30 18:09 65.48473 22.25296 1271 ft 142 kts 317°
2026-04-30 18:10 65.51397 22.18815 551 ft 142 kts 317°
2026-04-30 18:11 65.54108 22.12791 79 ft 86 kts 317°
2026-04-30 18:11 65.54772 22.11432 79 ft 8 kts 31°
2026-04-30 18:12 65.54880 22.11693 79 ft 7 kts 47°
2026-04-30 18:13 65.54919 22.11869 79 ft 6 kts 95°
2026-04-30 18:13 65.54856 22.12043 79 ft 5 kts 139°
2026-04-30 18:14 65.54851 22.12185 79 ft 4 kts 54°
2026-04-30 18:15 65.54858 22.12208 79 ft 0 kts 51°